Location: ??????
(55.2000°N, 38.3000°E)
Time: 09:22:45
(UTC+00:00)

NOSS 0 Rocket - Pass Details

Date: 15 November 2025
Orbit: 934 x 953 km, 70.0° (Epoch: 14 December)

Event Time Altitude Azimuth Distance (km) Brightness Sun altitude
Exits shadow 01:20:17 60° 146° (SE) 1,070 4.2 -30.9°
Maximum altitude 01:20:52 63° 118° (ESE) 1,044 4.2 -30.8°
Drops below altitude 10° 01:26:57 10° 39° (NE) 2,664 6.9 -29.9°
Sets 01:29:30 0° 37° (NE) 3,615 7.6 -29.6°
